sat.trackr.live / text

‹ back to catalog

SMDC ONE 2.4

NORAD 39469 · 2013-072H

PAYLOAD ACTIVE UNKNOWN

§ Identity

Operator
Country
US
Launch date
2013-12-06
Launch site
AFWTR
Launch vehicle
Mass (kg)
RCS (m²)

External: N2YO · Heavens-Above · Gunter

§ Orbital elements

Epoch: 2026-09-20T05:13:44.762016Z

Period
94.68 min
Inclination
120.4884°
Eccentricity
0.0142877
Mean motion
15.20890648 rev/d
Perigee alt
404.8 km
Apogee alt
601.5 km
Semi-major
6,881.3 km
B*
5.0453e-4
RAAN
359.6784°
Arg perigee
117.5710°
Mean anomaly
243.9956°
Rev number
13,227

§ Raw data

SMDC ONE 2.41 39469U 13072H   26263.21787919  .00014474  00000+0  50453-3 0  99962 39469 120.4884 359.6784 0142877 117.5710 243.9956 15.20890648132279

JSON: /api/v1/satellites/39469 · /tle

For live sub-satellite position, see the globe view (requires WebGL).

§ Visibility from observer

Set your observer location to see the next 7 days of passes ≥ 10°. The values pass through the URL so the page stays shareable.

No JS? Fill the form by hand. The geolocation button needs JavaScript.